Location: Bakov nad Jizerou
(50.4784°N, 14.9394°E)
Time: 06:57:50
(UTC+00:00)

ATLAS CENTAUR R/B - Pass Details

Date: 16 June 2021
Orbit: 472 x 671 km, 64.6° (Epoch: 13 June)

Event Time Altitude Azimuth Distance (km) Brightness Sun altitude
Rises 21:37:38 0° 315° (NW) 2,780 6.1 -13.9°
Reaches altitude 10° 21:39:53 10° 308° (NW) 1,912 5.0 -14.0°
Maximum altitude 21:43:59 44° 237° (WSW) 853 2.1 -14.2°
Enters shadow 21:46:25 23° 178° (S) 1,341 2.7 -14.3°
